| time (UTC) | temp C | wind direction | speed KPH | gust KPH | rain 1hr cm | rain 24hr cm | rain mn cm | humidity % | barometer mb |
| 20260504033012 | 5 | 235 | 0.0 | 0.0 | 0.00 | 0.00 | 0.00 | 73 | 1016.7 |
| 20260504031518 | 4 | 234 | 0.0 | 0.0 | 0.00 | 0.00 | 0.00 | 76 | 1016.4 |
| 20260504030015 | 4 | 245 | 0.0 | 0.0 | 0.00 | 0.00 | 0.00 | 75 | 1016.4 |
| 20260504024510 | 3 | 245 | 0.0 | 0.0 | 0.00 | 0.00 | 0.00 | 76 | 1016.7 |
| 20260504023015 | 3 | 245 | 0.0 | 0.0 | 0.00 | 0.00 | 0.00 | 78 | 1016.6 |
| 20260504021515 | 3 | 245 | 0.0 | 0.0 | 0.00 | 0.00 | 0.00 | 78 | 1016.7 |
| 20260504020016 | 3 | 245 | 0.0 | 0.0 | 0.00 | 0.00 | 0.00 | 74 | 1016.7 |
| 20260504014517 | 3 | 245 | 0.0 | 0.0 | 0.00 | 0.00 | 0.00 | 76 | 1016.6 |
| 20260504013017 | 5 | 245 | 0.0 | 1.6 | 0.00 | 0.00 | 0.00 | 69 | 1016.2 |
| 20260504011514 | 5 | 245 | 0.0 | 0.0 | 0.00 | 0.00 | 0.00 | 69 | 1016.2 |
| 20260504010017 | 5 | 245 | 0.0 | 0.0 | 0.00 | 0.00 | 0.00 | 68 | 1016.0 |
| 20260504004519 | 6 | 245 | 0.0 | 0.0 | 0.00 | 0.00 | 0.00 | 61 | 1015.9 |
| 20260504003020 | 7 | 245 | 0.0 | 0.0 | 0.00 | 0.00 | 0.00 | 57 | 1015.8 |
| 20260504001516 | 8 | 245 | 0.0 | 0.0 | 0.00 | 0.00 | 0.00 | 52 | 1015.6 |
| 20260504000017 | 10 | 247 | 0.0 | 1.6 | 0.00 | 0.00 | 0.00 | 43 | 1015.7 |
| 20260503234521 | 12 | 295 | 0.0 | 4.8 | 0.00 | 0.00 | 0.00 | 36 | 1015.6 |
| 20260503233018 | 13 | 313 | 6.4 | 12.9 | 0.00 | 0.00 | 0.00 | 31 | 1015.7 |
| 20260503231523 | 12 | 310 | 4.8 | 9.7 | 0.00 | 0.00 | 0.00 | 31 | 1015.7 |
| 20260503230018 | 13 | 289 | 4.8 | 9.7 | 0.00 | 0.00 | 0.00 | 30 | 1015.9 |
| 20260503224521 | 13 | 65 | 3.2 | 19.3 | 0.00 | 0.00 | 0.00 | 29 | 1015.9 |
| 20260503223023 | 13 | 297 | 6.4 | 11.3 | 0.00 | 0.00 | 0.00 | 30 | 1015.9 |
| 20260503221520 | 13 | 295 | 8.0 | 14.5 | 0.00 | 0.00 | 0.00 | 29 | 1015.8 |
| 20260503220022 | 13 | 268 | 6.4 | 17.7 | 0.00 | 0.00 | 0.00 | 31 | 1015.8 |
| 20260503214536 | 13 | 292 | 11.3 | 14.5 | 0.00 | 0.00 | 0.00 | 31 | 1015.9 |
| 20260503213022 | 13 | 248 | 9.7 | 17.7 | 0.00 | 0.00 | 0.00 | 30 | 1015.9 |
| 20260503211523 | 13 | 271 | 3.2 | 17.7 | 0.00 | 0.00 | 0.00 | 30 | 1016.0 |
| 20260503210012 | 13 | 295 | 3.2 | 12.9 | 0.00 | 0.00 | 0.00 | 30 | 1016.1 |
| 20260503204513 | 13 | 326 | 9.7 | 17.7 | 0.00 | 0.00 | 0.00 | 34 | 1016.2 |
| 20260503203017 | 13 | 287 | 1.6 | 17.7 | 0.00 | 0.00 | 0.00 | 33 | 1016.4 |
| 20260503201524 | 12 | 301 | 9.7 | 22.5 | 0.00 | 0.00 | 0.00 | 31 | 1016.6 |
| 20260503200033 | 12 | 314 | 4.8 | 19.3 | 0.00 | 0.00 | 0.00 | 31 | 1016.8 |
| 20260503194513 | 12 | 248 | 6.4 | 17.7 | 0.00 | 0.00 | 0.00 | 36 | 1017.1 |
| 20260503193015 | 12 | 283 | 12.9 | 24.1 | 0.00 | 0.00 | 0.00 | 32 | 1017.3 |
| 20260503191522 | 11 | 302 | 4.8 | 17.7 | 0.00 | 0.00 | 0.00 | 30 | 1017.7 |
| 20260503190025 | 12 | 302 | 11.3 | 27.4 | 0.00 | 0.00 | 0.00 | 28 | 1017.9 |
| 20260503184538 | 11 | 300 | 9.7 | 19.3 | 0.00 | 0.00 | 0.00 | 35 | 1018.1 |
| 20260503183015 | 11 | 258 | 12.9 | 20.9 | 0.00 | 0.00 | 0.00 | 35 | 1018.1 |
| 20260503181518 | 11 | 227 | 8.0 | 24.1 | 0.00 | 0.00 | 0.00 | 38 | 1018.2 |
| 20260503180040 | 10 | 45 | 8.0 | 20.9 | 0.00 | 0.00 | 0.00 | 39 | 1018.5 |
| 20260503174514 | 10 | 298 | 9.7 | 20.9 | 0.00 | 0.00 | 0.00 | 35 | 1018.3 |
| 20260503173013 | 10 | 319 | 9.7 | 27.4 | 0.00 | 0.00 | 0.00 | 39 | 1018.7 |
| 20260503171518 | 10 | 274 | 9.7 | 19.3 | 0.00 | 0.00 | 0.00 | 42 | 1018.6 |
| 20260503081528 | 0 | 274 | 1.6 | 4.8 | 0.00 | 0.00 | 0.00 | 81 | 1016.5 |
| 20260503071507 | 1 | 257 | 4.8 | 9.7 | 0.00 | 0.00 | 0.00 | 76 | 1016.2 |
| 20260503054516 | 2 | 254 | 4.8 | 8.0 | 0.00 | 0.00 | 0.00 | 71 | 1016.2 |
| 20260503053017 | 2 | 241 | 3.2 | 8.0 | 0.00 | 0.00 | 0.00 | 71 | 1016.2 |
| 20260503051502 | 2 | 254 | 4.8 | 9.7 | 0.00 | 0.00 | 0.00 | 71 | 1016.0 |
| 20260503050006 | 2 | 236 | 1.6 | 3.2 | 0.00 | 0.00 | 0.00 | 72 | 1015.9 |
| 20260503044507 | 2 | 238 | 1.6 | 4.8 | 0.00 | 0.00 | 0.00 | 70 | 1015.8 |
| 20260503043014 | 3 | 262 | 3.2 | 8.0 | 0.00 | 0.00 | 0.00 | 66 | 1015.8 |
| 20260503041518 | 3 | 122 | 3.2 | 6.4 | 0.00 | 0.00 | 0.00 | 65 | 1015.8 |
| 20260503040002 | 3 | 256 | 0.0 | 9.7 | 0.00 | 0.00 | 0.00 | 64 | 1015.7 |
| 20260503034506 | 4 | 18 | 0.0 | 6.4 | 0.00 | 0.00 | 0.00 | 61 | 1015.7 |